Flag for El Salvador Weather past 2 weeks in San Salvador, El Salvador

Now
72 °F

Clear.


Feels Like: 71 °F
Forecast: 67 / 79 °F
Wind: 7 mph from South

Location: San Salvador / Ilopango

Current Time: Oct 20, 2014 at 11:45:23 PM

Latest Report: Oct 20, 2014 at 10:50 PM


Visibility: 10 mi

Pressure: 29.95 "Hg

Humidity: 83%

Dew point: 66 °F

Location of San SalvadorLocation

Historic Weather in San Salvador — Graph

°F

San Salvador temperature yesterday

Maximum temperature yesterday: 84 °F (at 2:50 PM)
Minimum temperature yesterday: 70 °F (at 5:50 AM)
Average temperature yesterday: 76 °F

Past Weeks' High & Low Weather Summary

 TemperatureHumidityPressure
High88 °F (Oct 6, 12:50 PM)100% (Oct 9, 9:50 PM)30.07 "Hg (Oct 9, 9:50 PM)
Low66 °F (Oct 10, 5:50 AM)29% (Oct 9, 6:50 AM)29.83 "Hg (Oct 10, 3:50 PM)
Average76 °F87%29.95 "Hg
* Reported Oct 5 10:50 PM — Oct 20 10:50 PM, San Salvador, Weather by CustomWeather, © 2014

Note: Actual official high and low records may vary slightly from our data, if they occured in-between our weather recording intervals... More about our weather records

Advertising

San Salvador weather history for previous 24 hours

 ConditionsComfort  
Time TempWeatherWind HumidityBarometerVisibility
10:50 PM
Oct 20
72 °FClear.7 mph83%29.95 "Hg10 mi
9:50 PM72 °FClear.5 mph83%29.95 "Hg10 mi
8:50 PM72 °FClear.2 mph88%29.95 "Hg10 mi
7:50 PM72 °FClear.No wind88%29.92 "Hg10 mi
6:50 PM72 °FPassing clouds.5 mph94%29.89 "HgN/A
5:50 PM75 °FPassing clouds.5 mph83%29.89 "HgN/A
4:50 PM75 °FPassing clouds.6 mph83%29.86 "HgN/A
3:50 PM75 °FPassing clouds.6 mph83%29.89 "HgN/A
2:50 PM77 °FScattered clouds.6 mph79%29.89 "HgN/A
1:50 PM82 °FScattered clouds.6 mph70%29.89 "HgN/A
12:50 PM82 °FScattered clouds.5 mph70%29.92 "HgN/A
11:50 AM81 °FPartly sunny.6 mph79%29.95 "HgN/A
10:50 AM81 °FScattered clouds.3 mph79%29.95 "HgN/A
9:50 AM79 °FPassing clouds.2 mph79%29.98 "HgN/A
8:50 AM75 °FPassing clouds.No wind89%29.98 "HgN/A
7:50 AM72 °FPassing clouds.No wind94%29.98 "HgN/A
6:50 AM70 °FRain. Scattered clouds.No wind100%29.98 "Hg2 mi
5:50 AM70 °FRain. Partly sunny.No wind100%29.95 "Hg3 mi
Weather by CustomWeather, © 2014

See weather overviewHow to use our weather pages